OpenBCM V1.08-5-g2f4a (Linux)

Packet Radio Mailbox

IZ3LSV

[San Dona' di P. JN]

 Login: GUEST





  
I0OJJ  > KEPS     24.05.25 02:44l 357 Lines 16943 Bytes #64 (0) @ AMSAT
BID : ORB25144.1
Read: GUEST
Subj: 2Line Orbital Elements 25144.AMSAT
Path: IZ3LSV<IK6IHL<IK7NXU<HB9ON<DK0WUE<PD0LPM<PI8ZTM<VK2IO<VK2RZ<N6PNK<
      VE3CGR<VE3TOK<IR0AAB<I0OJJ<I0OJJ
Sent: 250524/0025z @:I0OJJ.ITA.EU [Rome] obcm1.08-10-g596e

>From i0ojj%i0ojj.ita.eu@i0ojj.ampr.org Sat May 24 02:25:06 2025
Received: from i0ojj.ampr.org by i0ojj.ampr.org (JNOS2.0p.8) with SMTP
	id AA17032258 ; Sat, 24 May 2025 02:25:06 +0200
Message-Id: <ORB25144.1@i0ojj.bbs>
>From: i0ojj@i0ojj.ita.eu
X-JNOS-User-Port: Telnet   (i0ojj @ 44.134.109.10)  -> Sending message

From: I0OJJ @ I0OJJ.ITA.EU (Gustavo)
To:   KEPS @ AMSAT
X-Info: This message was generated automatically


QST de W1STR

AMSAT Orbital Elements for Amateur Satellites in TLE Format
>From Orbital Analysis Office
New England Sci-Tech STEM Education Center
Natick, MA May 24, 2025
To all radio amateurs


These element sets describe the orbits of various satellites 
in use by the amateur radio community. For details see:
www.amsat.org/keplerian-elements-formats/

A daily update of element sets is available at:
www.amsat.org/tle/daily-bulletin.txt
or without bulletin text:
www.amsat.org/tle/dailytle.txt


AO-07
1 07530U 74089B   25143.75339442 -.00000028  00000-0  11721-3 0  9991
2 07530 101.9933 147.8382 0012403 152.5777  20.7432 12.53689206311959
UO-11
1 14781U 84021B   25143.46912153  .00001306  00000-0  14338-3 0  9994
2 14781  97.7535 110.1783 0008878  41.9185 318.2711 14.89336733220092
AO-27
1 22825U 93061C   25143.43435310  .00000102  00000-0  56246-4 0  9996
2 22825  98.7373 204.9033 0008874 156.3201 203.8391 14.30793388651266
FO-29
1 24278U 96046B   25143.45184465 -.00000029  00000-0  63584-5 0  9993
2 24278  98.5779  39.5960 0350514  27.1422 334.7572 13.53247664420455
NOAA-15
1 25338U 98030A   25143.84286386  .00000217  00000-0  10696-3 0  9996
2 25338  98.5358 169.3763 0011197  53.2660 306.9548 14.26969686406010
GO-32
1 25397U 98043D   25143.48092714  .00000064  00000-0  47852-4 0  9990
2 25397  98.9696 122.2443 0000281 219.6644 140.4513 14.24310760395852
ISS
1 25544U 98067A   25143.89205521  .00009453  00000-0  17526-3 0  9992
2 25544  51.6362  67.4443 0002147 142.5190 217.5949 15.49693127511392
NO-44
1 26931U 01043C   25143.46112533  .00000111  00000-0  72507-4 0  9997
2 26931  67.0490 172.1011 0005928 274.6652  85.3773 14.31725746234651
SO-50
1 27607U 02058C   25143.61069635  .00000898  00000-0  12989-3 0  9995
2 27607  64.5531 252.9129 0054352 337.9036  21.9726 14.81580655206927
CO-55
1 27844U 03031E   25143.53511357  .00000306  00000-0  15255-3 0  9997
2 27844  98.6760 152.0286 0008578 232.4221 127.6179 14.23982989136212
CO-57
1 27848U 03031J   25143.26467531  .00000265  00000-0  13634-3 0  9998
2 27848  98.6791 151.7807 0008313 252.7159 107.3110 14.23319282135902
RS-22
1 27939U 03042A   25143.82494736  .00001083  00000-0  17950-3 0  9994
2 27939  98.3270 312.8738 0012596  66.3541  40.6502 14.72311653158364
NOAA-18
1 28654U 05018A   25143.84708875  .00000191  00000-0  12473-3 0  9992
2 28654  98.8421 223.5112 0014478 172.6243 187.5145 14.13601957 31387
CO-58
1 28895U 05043F   25143.37660736  .00001407  00000-0  23765-3 0  9995
2 28895  98.2476 287.5146 0014473   6.9604 353.1800 14.70958072 44413
CO-65
1 32785U 08021C   25143.90979422  .00004315  00000-0  31444-3 0  9995
2 32785  97.7845 114.9530 0007496 268.8881  91.1485 15.04270228926643
CO-66
1 32791U 08021J   25143.70255443  .00010295  00000-0  50507-3 0  9995
2 32791  97.7263 123.3736 0002714 191.2720 168.8453 15.18300942928017
RS-30
1 32953U 08025A   25143.82333140  .00000011  00000-0  44665-5 0  9998
2 32953  82.5037 237.5959 0020478  84.1553 276.1861 12.43164472771455
NOAA-19
1 33591U 09005A   25143.85083863  .00000183  00000-0  12142-3 0  9996
2 33591  98.9978 208.4606 0014530  54.4487 305.8037 14.13365733839747
SRMSAT
1 37841U 11058D   25143.62270956  .00000418  00000-0  83437-4 0  9992
2 37841  19.9718 257.1676 0011612 238.4774 149.2788 14.11430873702932
ZACUBE-1
1 39417U 13066B   25143.80410636  .00003935  00000-0  34462-3 0  9995
2 39417  97.7781 100.9096 0045707 107.4989 253.1235 14.96475733622405
Delfi-N3xt
1 39428U 13066N   25143.75293196  .00006674  00000-0  68186-3 0  9994
2 39428  97.8359  61.5944 0086911  56.5871 304.3620 14.88107859616759
GOMX-1
1 39430U 13066Q   25143.78176362  .00001367  00000-0  21978-3 0  9997
2 39430  97.6854   3.4767 0131169 246.0114 112.7314 14.67573774612948
LO-74
1 39440U 13066AA  25143.82007784  .00002299  00000-0  23743-3 0  9991
2 39440  97.8486  88.4986 0060656 234.6377 124.9163 14.89823451620146
AO-73
1 39444U 13066AE  25143.36155093  .00006188  00000-0  46627-3 0  9998
2 39444  97.7828 105.2113 0043975  85.1455 275.4788 15.02070104621006
DTUSAT-2
1 40030U 14033W   25142.44345133  .00006146  00000-0  40316-3 0  9993
2 40030  98.0543 113.3902 0011059 115.7418 244.4951 15.08016460593669
EO-80
1 40032U 14033Y   25143.45999533  .00006314  00000-0  41317-3 0  9995
2 40032  98.0422 114.1337 0010314  63.7310 296.4975 15.08105170593798
LILACSAT-2
1 40908U 15049K   25143.83142378  .00009910  00000-0  26261-3 0  9990
2 40908  97.5068 163.7776 0008372 208.9051 151.1731 15.38520191535658
IO-86
1 40931U 15052B   25103.16584653  .00001824  00000-0  15574-3 0  9999
2 40931   5.9984   7.7323 0012484  15.4851 344.5658 14.78734415515920
Horyu-4
1 41340U 16012D   25143.65308310  .00018763  00000-0  51205-3 0  9994
2 41340  30.9971 245.7112 0006504 235.2574 124.7460 15.36161882510188
Lapan A3
1 41603U 16040E   25143.82091307  .00003272  00000-0  11592-3 0  9995
2 41603  97.1370 149.0876 0010118 339.2110  20.8718 15.29745202495223
CAS-2T
1 41847U 16066G   25143.49038807  .00000947  00000-0  14483-3 0  9990
2 41847  98.4202 218.1011 0345374 230.0782 126.9586 14.43425606448551
CAS-4B
1 42759U 17034B   25143.84521463  .00054362  00000-0  61941-3 0  9994
2 42759  43.0077  61.4644 0019334 179.4805 180.6082 15.61210092439984
CAS-4A
1 42761U 17034D   25143.82728435  .00058995  00000-0  64192-3 0  9990
2 42761  43.0117  58.8989 0020664 183.5361 176.5360 15.62331075440009
TechnoSat
1 42829U 17042E   25143.71869754  .00002246  00000-0  17721-3 0  9996
2 42829  97.3922 313.2392 0013214 341.6733  18.4014 15.01625985428194
AO-91
1 43017U 17073E   25143.56741581  .00005177  00000-0  26996-3 0  9990
2 43017  97.5294  14.7742 0171999 224.0791 134.6618 15.04454372406654
S-Net D
1 43186U 18014G   25143.48782320  .00004258  00000-0  25407-3 0  9995
2 43186  97.5644  46.5692 0007412 288.1261  71.9161 15.11656253399790
S-Net B
1 43187U 18014H   25143.29440655  .00003866  00000-0  23113-3 0  9993
2 43187  97.5649  46.3486 0008040 282.8490  77.1842 15.11635355399769
S-Net A
1 43188U 18014J   25143.28967778  .00004163  00000-0  24846-3 0  9998
2 43188  97.5659  46.4919 0007978 283.7652  76.2689 15.11659770399768
S-Net C
1 43189U 18014K   25143.29675481  .00003750  00000-0  22428-3 0  9992
2 43189  97.5673  46.5101 0009412 274.3989  85.6166 15.11632341398312
Ten-Koh
1 43677U 18084G   25143.45805242  .00001876  00000-0  15403-3 0  9991
2 43677  98.0880 315.0357 0005430 335.9840  24.1129 15.00496100357673
PO-101
1 43678U 18084H   25143.82600537  .00002286  00000-0  19765-3 0  9994
2 43678  98.1021 319.3119 0007408 352.4466   7.6642 14.98253828357872
QO-100
1 43700U 18090A   25143.55531044  .00000154  00000-0  00000-0 0  9994
2 43700   0.0144 347.0737 0001935 115.6362   4.4056  1.00271308 23778
MinXSS-2
1 43758U 18099A   25143.60291397  .00012808  00000-0  51224-3 0  9992
2 43758  97.5029 209.5890 0011681 207.6193 152.4425 15.25171177354382
AO-95
1 43770U 18099N   25143.56555363  .00007270  00000-0  37174-3 0  9992
2 43770  97.4929 201.8420 0009025 269.2466  90.7733 15.16920360353970
RANGE-A
1 43773U 18099R   25143.75773150  .00004128  00000-0  26528-3 0  9992
2 43773  97.4491 192.6477 0009968 245.6126 114.4063 15.08929898353687
MOVE-II
1 43780U 18099Y   25143.47663056  .00156741  00000-0  13348-2 0  9996
2 43780  97.4663 217.8841 0006650 197.5782 162.5250 15.69055953355110
SNUSat 2
1 43782U 18099AA  25143.69231730  .00006554  00000-0  36041-3 0  9994
2 43782  97.4612 198.8555 0011649 204.5003 155.5676 15.14351356353944
SnugLite
1 43784U 18099AC  25143.59953975  .00006986  00000-0  35433-3 0  9990
2 43784  97.4426 198.2914 0003344 184.0591 176.0616 15.17245096354061
ITASat 1
1 43786U 18099AE  25143.61303735  .00004903  00000-0  28314-3 0  9995
2 43786  97.4581 198.3375 0012674 263.0465  96.9324 15.12715112353893
EAGLET 1
1 43790U 18099AJ  25143.57459182  .00003816  00000-0  24570-3 0  9995
2 43790  97.4772 198.3115 0010807 244.0223 115.9893 15.08903377353507
ESEO
1 43792U 18099AL  25143.68672674  .00002246  00000-0  17313-3 0  9995
2 43792  97.4468 191.9064 0012201 219.4046 140.6293 15.02538797353280
CSIM
1 43793U 18099AM  25143.26251757  .00141729  00000-0  12448-2 0  9998
2 43793  97.4830 219.9000 0007585 192.3417 167.7659 15.68336206354926
JO-97
1 43803U 18099AX  25143.40956192  .00008600  00000-0  39707-3 0  9999
2 43803  97.4674 202.6433 0007516 191.3584 168.7483 15.20429051354162
Suomi 100
1 43804U 18099AY  25143.85809960  .00008226  00000-0  40640-3 0  9991
2 43804  97.4742 202.4310 0012263 198.4051 161.6741 15.18050336354165
ISAT
1 43879U 18111D   25143.55115873  .00015266  00000-0  53980-3 0  9991
2 43879  97.5973  57.5755 0006473 253.5402 106.5127 15.29254530349079
UWE-4
1 43880U 18111E   25143.48754472  .00011746  00000-0  46711-3 0  9992
2 43880  97.5916  56.1064 0009818 271.1042  88.9071 15.25404292351025
Sparrow
1 43881U 18111F   25143.74275765  .00016389  00000-0  55857-3 0  9994
2 43881  97.6113  60.5843 0004868 311.6500  48.4323 15.30446940349210
Prox-1
1 44339U 19036A   25143.48986542  .00008303  00000-0  10488-2 0  9990
2 44339  23.9959 174.0285 0006872 233.3936 126.5929 14.79610826315480
